TimeIST,TemperatureF,Dew PointF,Humidity,Sea Level PressureIn,VisibilityMPH,Wind Direction,Wind SpeedMPH,Gust SpeedMPH,PrecipitationIn,Events,Conditions,WindDirDegrees,DateUTC
12:10 AM,80.6,73.4,79,29.92,3.1,WNW,16.1,-,N/A,,Haze,290,2012-10-14 18:40:00
12:40 AM,77.0,71.6,83,29.92,3.1,WNW,15.0,-,N/A,,Haze,300,2012-10-14 19:10:00
1:10 AM,77.0,71.6,83,29.92,3.1,NW,15.0,-,N/A,,Haze,310,2012-10-14 19:40:00
1:40 AM,77.0,71.6,83,29.92,3.1,WNW,15.0,-,N/A,,Haze,300,2012-10-14 20:10:00
2:10 AM,77.0,71.6,83,29.89,3.1,WNW,13.8,-,N/A,,Haze,290,2012-10-14 20:40:00
2:30 AM,77,71,75,29.90,2,WNW,13.8,,,,Partly Cloudy,290,2012-10-14 21:00:00
2:40 AM,77.0,71.6,83,29.89,3.1,WNW,12.7,-,N/A,,Haze,300,2012-10-14 21:10:00
3:10 AM,77.0,71.6,83,29.89,3.1,WNW,11.5,-,N/A,,Haze,300,2012-10-14 21:40:00
4:10 AM,77.0,71.6,83,29.89,3.1,WNW,8.1,-,N/A,,Haze,300,2012-10-14 22:40:00
5:10 AM,77.0,69.8,78,29.89,3.1,WNW,9.2,-,N/A,,Haze,290,2012-10-14 23:40:00
5:30 AM,76,68,70,29.88,2,WNW,6.9,,,,Haze,290,2012-10-15 00:00:00
6:10 AM,78.8,68.0,69,29.92,3.1,WSW,4.6,-,N/A,,Haze,250,2012-10-15 00:40:00
7:10 AM,78.8,69.8,74,29.92,3.7,WSW,3.5,-,N/A,,Mostly Cloudy,240,2012-10-15 01:40:00
7:40 AM,80.6,71.6,74,29.92,3.7,West,4.6,-,N/A,,Scattered Clouds,270,2012-10-15 02:10:00
8:10 AM,80.6,73.4,79,29.92,3.7,West,5.8,-,N/A,,Scattered Clouds,270,2012-10-15 02:40:00
8:30 AM,80,71,69,29.91,2,West,10.4,,,,Haze,270,2012-10-15 03:00:00
8:40 AM,78.8,71.6,78,29.92,3.7,WNW,6.9,-,N/A,,Scattered Clouds,290,2012-10-15 03:10:00
9:10 AM,80.6,71.6,74,29.92,3.7,SW,8.1,-,N/A,,Scattered Clouds,220,2012-10-15 03:40:00
9:40 AM,84.2,73.4,70,29.92,5.0,West,5.8,-,N/A,,Scattered Clouds,260,2012-10-15 04:10:00
10:10 AM,86.0,75.2,70,29.92,5.0,WSW,4.6,-,N/A,,Scattered Clouds,240,2012-10-15 04:40:00
10:40 AM,86.0,73.4,66,29.92,5.0,WSW,6.9,-,N/A,,Scattered Clouds,240,2012-10-15 05:10:00
11:10 AM,87.8,73.4,62,29.92,5.0,SSE,6.9,-,N/A,,Scattered Clouds,160,2012-10-15 05:40:00
11:30 AM,89,74,54,29.91,2,South,6.9,,,,Haze,180,2012-10-15 06:00:00
11:40 AM,87.8,75.2,66,29.89,5.0,South,4.6,-,N/A,,Scattered Clouds,180,2012-10-15 06:10:00
12:10 PM,89.6,75.2,62,29.89,5.0,South,2.3,-,N/A,,Scattered Clouds,180,2012-10-15 06:40:00
12:40 PM,89.6,75.2,62,29.89,5.0,South,6.9,-,N/A,,Scattered Clouds,190,2012-10-15 07:10:00
1:10 PM,89.6,75.2,62,29.86,5.0,South,6.9,-,N/A,,Scattered Clouds,170,2012-10-15 07:40:00
1:40 PM,91.4,75.2,59,29.86,5.0,South,3.5,-,N/A,,Scattered Clouds,180,2012-10-15 08:10:00
2:10 PM,93.2,73.4,52,29.86,5.0,South,9.2,-,N/A,,Scattered Clouds,170,2012-10-15 08:40:00
2:30 PM,92,71,42,29.84,2,South,9.2,,,,Haze,180,2012-10-15 09:00:00
3:10 PM,78.8,77.0,94,29.86,1.9,SW,5.8,-,N/A,Rain-Thunderstorm,Light Thunderstorms and Rain,230,2012-10-15 09:40:00
4:10 PM,80.6,75.2,84,29.83,3.1,Variable,3.5,-,N/A,,Light Drizzle,0,2012-10-15 10:40:00
4:40 PM,82.4,75.2,79,29.83,3.1,Variable,3.5,-,N/A,,Drizzle,0,2012-10-15 11:10:00
5:10 PM,82.4,75.2,79,29.83,3.1,Variable,2.3,-,N/A,,Haze,0,2012-10-15 11:40:00
5:30 PM,81,79,91,29.84,2,South,2.3,,,,Haze,180,2012-10-15 12:00:00
5:40 PM,80.6,78.8,94,29.83,3.7,South,2.3,-,N/A,,Mostly Cloudy,180,2012-10-15 12:10:00
6:40 PM,80.6,78.8,94,29.86,3.1,Calm,Calm,-,N/A,,Haze,0,2012-10-15 13:10:00
7:10 PM,80.6,77.0,89,29.89,3.1,Calm,Calm,-,N/A,,Haze,0,2012-10-15 13:40:00
7:40 PM,80.6,77.0,89,29.89,3.1,Variable,2.3,-,N/A,,Haze,0,2012-10-15 14:10:00
8:10 PM,80.6,77.0,89,29.89,3.1,SSE,3.5,-,N/A,,Haze,160,2012-10-15 14:40:00
8:30 PM,80,77,88,29.90,2,SSE,2.3,,,,Haze,160,2012-10-15 15:00:00
8:40 PM,78.8,77.0,94,29.92,3.1,South,3.5,-,N/A,,Haze,180,2012-10-15 15:10:00
9:10 PM,78.8,77.0,94,29.92,3.1,SSW,3.5,-,N/A,,Haze,200,2012-10-15 15:40:00
9:40 PM,80.6,75.2,84,29.92,3.1,South,2.3,-,N/A,,Haze,170,2012-10-15 16:10:00
10:10 PM,80.6,75.2,84,29.92,3.1,South,3.5,-,N/A,,Haze,180,2012-10-15 16:40:00
10:40 PM,78.8,75.2,89,29.95,3.1,SSW,3.5,-,N/A,,Haze,210,2012-10-15 17:10:00
11:10 PM,78.8,75.2,89,29.95,3.1,South,3.5,-,N/A,,Haze,180,2012-10-15 17:40:00
11:30 PM,78,76,91,29.94,2,South,3.5,,,,Haze,180,2012-10-15 18:00:00
11:40 PM,78.8,75.2,89,29.95,3.1,SSW,4.6,-,N/A,,Haze,200,2012-10-15 18:10:00